Location: Newark
(43.9494°N, 6.8108°E)
Time: 06:42:22
(UTC+00:00)

Vanguard 1 - Visible Passes

Search period start: 16 October 2019 00:00
Search period end: 26 October 2019 00:00
Orbit: 653 x 3830 km, 34.3° (Epoch: 14 October)

Date Brightness Start Highest point End Pass type
(mag) Time Alt. Az. Time Alt. Az. Time Alt. Az.
16 Oct 13.4 02:23:24 28° SSW 02:23:24 28° SSW 02:34:58 10° SSE visible
16 Oct 12.5 17:01:42 10° S 17:06:56 17° SE 17:14:00 10° E visible
16 Oct 11.9 19:16:58 10° SW 19:26:22 47° SSE 19:29:19 43° SE visible
16 Oct 12.6 21:36:05 10° WSW 21:42:00 37° WSW 21:42:00 37° WSW visible
17 Oct 13.9 00:31:01 18° SE 00:31:01 18° SE 00:35:11 10° SE visible
17 Oct 13.6 02:43:47 22° SSW 02:43:47 22° SSW 02:53:44 10° S visible
17 Oct 12.2 17:20:53 10° S 17:27:08 23° SE 17:36:12 11° E visible
17 Oct 11.9 19:37:29 10° SW 19:47:12 52° SSE 19:48:54 50° SE visible
17 Oct 12.8 21:57:00 10° W 22:01:35 29° WSW 22:01:35 29° WSW visible
18 Oct 13.9 00:51:21 18° SSE 00:51:21 18° SSE 00:55:27 10° SSE visible
18 Oct 13.7 03:04:06 17° SSW 03:04:06 17° SSW 03:11:27 10° S visible
18 Oct 12.0 17:40:38 10° SSW 17:47:29 30° SE 17:55:46 15° E visible
18 Oct 11.8 19:58:08 10° WSW 20:08:08 55° SSE 20:08:27 55° SSE visible
18 Oct 13.1 22:17:58 10° W 22:21:08 22° WSW 22:21:08 22° WSW visible
19 Oct 13.9 01:11:35 16° SSE 01:11:35 16° SSE 01:15:18 10° SSE visible
19 Oct 13.9 03:24:21 11° SW 03:24:21 11° SW 03:26:49 10° SSW visible
19 Oct 11.8 18:00:43 10° SSW 18:07:59 36° SSE 18:15:18 21° ESE visible
19 Oct 11.9 20:18:52 10° WSW 20:27:59 56° SSW 20:27:59 56° SSW visible
19 Oct 13.3 22:39:01 10° W 23:19:00 - SE 22:40:40 16° W visible
20 Oct 13.9 01:31:45 14° S 01:31:45 14° S 01:34:39 10° SSE visible
20 Oct 11.7 18:21:04 10° SW 18:28:37 43° SSE 18:34:50 27° ESE visible
20 Oct 12.0 20:39:41 10° WSW 20:47:31 51° SW 20:47:31 51° SW visible
20 Oct 13.5 23:00:09 10° W 23:39:05 - SE 23:00:12 10° W visible
21 Oct 14.0 01:51:49 12° S 01:51:49 12° S 01:53:15 10° S visible
21 Oct 11.6 18:41:34 10° SW 18:49:24 48° SSE 18:54:21 34° ESE visible
21 Oct 12.2 21:00:33 10° W 21:07:02 42° SW 21:07:02 42° SW visible
21 Oct13.723:59:05SE23:59:05SE23:19:44Wvisible
22 Oct 11.6 19:02:10 10° WSW 19:10:16 51° SSE 19:13:53 41° SE visible
22 Oct 12.5 21:21:29 10° W 21:26:34 33° WSW 21:26:34 33° WSW visible
23 Oct13.900:18:59SSE00:18:59SSE23:39:15Wvisible
23 Oct 11.7 17:05:05 10° SSW 17:10:50 31° SSE 17:20:07 10° E visible
23 Oct 11.6 19:22:53 10° WSW 19:31:12 52° S 19:33:25 48° SE visible
23 Oct 12.8 21:42:28 10° W 21:46:06 25° WSW 21:46:06 25° WSW visible
24 Oct 11.5 17:25:23 10° SW 17:31:27 37° SSE 17:40:16 13° E visible
24 Oct 11.7 19:43:39 10° WSW 19:52:13 52° S 19:52:58 51° S visible
24 Oct 13.1 22:03:35 10° W 22:05:39 18° WSW 22:05:39 18° WSW visible
25 Oct 11.4 17:45:52 10° SW 17:52:11 42° SSE 17:59:50 18° ESE visible
25 Oct 11.8 20:04:30 10° WSW 20:12:32 49° SSW 20:12:32 49° SSW visible
25 Oct 13.4 22:24:50 10° W 22:25:13 11° W 22:25:13 11° W visible
